Weather reports worldwide

Advertisment
Bangkok, Thailand (48455): temperature & dewpoint: 13.02.2018 13:00:00 - 19.02.2018 13:00:00 (ICT)Bangkok, Thailand (48455): wind speed: 13.02.2018 13:00:00 - 19.02.2018 13:00:00 (ICT)Bangkok, Thailand (48455): wind direction: 13.02.2018 13:00:00 - 19.02.2018 13:00:00 (ICT)Bangkok, Thailand (48455): reduced air pressure: 13.02.2018 13:00:00 - 19.02.2018 13:00:00 (ICT)Bangkok, Thailand (48455): visibility: 13.02.2018 13:00:00 - 19.02.2018 13:00:00 (ICT)
Date & Time tt [°C] td [°C] ff [km/h] ff [kn] dd ppp [hPa] vv [km]
19.02.2018 13:00:00 - - - - - - -
19.02.2018 12:00:00 - - - - - - -
19.02.2018 11:00:00 - - - - - - -
19.02.2018 10:00:00 29,8 24,4 8 4 NNE 1011,9 10
19.02.2018 09:00:00 - - - - - - -
19.02.2018 08:00:00 - - - - - - -
19.02.2018 07:00:00 26,2 24,5 0 0 N 1011,0 7
19.02.2018 06:00:00 - - - - - - -
19.02.2018 05:00:00 - - - - - - -
19.02.2018 04:00:00 26,0 23,1 0 0 N 1009,3 8
19.02.2018 03:00:00 - - - - - - -
19.02.2018 02:00:00 - - - - - - -
19.02.2018 01:00:00 26,3 22,9 0 0 N 1010,0 8
19.02.2018 00:00:00 - - - - - - -
18.02.2018 23:00:00 - - - - - - -
18.02.2018 22:00:00 28,2 23,2 0 0 N 1010,4 8
18.02.2018 21:00:00 - - - - - - -
18.02.2018 20:00:00 - - - - - - -
18.02.2018 19:00:00 29,3 23,3 0 0 N 1009,8 8
18.02.2018 18:00:00 - - - - - - -
18.02.2018 17:00:00 - - - - - - -
18.02.2018 16:00:00 32,6 22,6 0 0 N 1008,4 8
18.02.2018 15:00:00 - - - - - - -
18.02.2018 14:00:00 - - - - - - -
18.02.2018 13:00:00 32,8 22,6 11 6 E 1009,6 8
18.02.2018 12:00:00 - - - - - - -
18.02.2018 11:00:00 - - - - - - -
18.02.2018 10:00:00 30,5 23,1 13 7 E 1011,5 8
18.02.2018 09:00:00 - - - - - - -
18.02.2018 08:00:00 - - - - - - -
18.02.2018 07:00:00 26,4 23,6 0 0 N 1009,3 8
18.02.2018 06:00:00 - - - - - - -
18.02.2018 05:00:00 - - - - - - -
18.02.2018 04:00:00 26,2 24,9 0 0 N 1009,0 8
18.02.2018 03:00:00 - - - - - - -
18.02.2018 02:00:00 - - - - - - -
18.02.2018 01:00:00 26,5 23,3 0 0 N 1009,7 8
18.02.2018 00:00:00 - - - - - - -
17.02.2018 23:00:00 - - - - - - -
17.02.2018 22:00:00 27,6 23,8 0 0 N 1009,5 8
17.02.2018 21:00:00 - - - - - - -
17.02.2018 20:00:00 - - - - - - -
17.02.2018 19:00:00 29,2 23,4 0 0 N 1007,7 8
17.02.2018 18:00:00 - - - - - - -
17.02.2018 17:00:00 - - - - - - -
17.02.2018 16:00:00 32,3 24,8 0 0 N 1006,9 10
17.02.2018 15:00:00 - - - - - - -
17.02.2018 14:00:00 - - - - - - -
17.02.2018 13:00:00 33,5 24,6 0 0 N 1009,7 10
17.02.2018 12:00:00 - - - - - - -
17.02.2018 11:00:00 - - - - - - -
17.02.2018 10:00:00 30,3 24,6 4 2 E 1011,0 10
17.02.2018 09:00:00 - - - - - - -
17.02.2018 08:00:00 - - - - - - -
17.02.2018 07:00:00 25,4 23,3 0 0 N 1008,7 8
17.02.2018 06:00:00 - - - - - - -
17.02.2018 05:00:00 - - - - - - -
17.02.2018 04:00:00 26,3 24,4 0 0 N 1008,3 8
17.02.2018 03:00:00 - - - - - - -
17.02.2018 02:00:00 - - - - - - -
17.02.2018 01:00:00 26,7 25,8 0 0 N 1009,1 8
17.02.2018 00:00:00 - - - - - - -
16.02.2018 23:00:00 - - - - - - -
16.02.2018 22:00:00 27,3 25,4 0 0 N 1011,8 10
16.02.2018 21:00:00 - - - - - - -
16.02.2018 20:00:00 - - - - - - -
16.02.2018 19:00:00 29,6 24,1 0 0 N 1007,9 10
16.02.2018 18:00:00 - - - - - - -
16.02.2018 17:00:00 - - - - - - -
16.02.2018 16:00:00 33,2 24,1 0 0 N 1007,5 10
16.02.2018 15:00:00 - - - - - - -
16.02.2018 14:00:00 - - - - - - -
16.02.2018 13:00:00 33,3 24,8 4 2 ESE 1010,0 10
16.02.2018 12:00:00 - - - - - - -
16.02.2018 11:00:00 - - - - - - -
16.02.2018 10:00:00 30,3 24,4 0 0 N 1012,8 10
16.02.2018 09:00:00 - - - - - - -
16.02.2018 08:00:00 - - - - - - -
16.02.2018 07:00:00 23,7 22,3 0 0 N 1013,5 7
16.02.2018 06:00:00 - - - - - - -
16.02.2018 05:00:00 - - - - - - -
16.02.2018 04:00:00 26,2 24,9 0 0 N 1011,0 10
16.02.2018 03:00:00 - - - - - - -
16.02.2018 02:00:00 - - - - - - -
16.02.2018 01:00:00 26,7 24,8 0 0 N 1010,5 10
16.02.2018 00:00:00 - - - - - - -
15.02.2018 23:00:00 - - - - - - -
15.02.2018 22:00:00 27,3 24,4 0 0 N 1012,3 10
15.02.2018 21:00:00 - - - - - - -
15.02.2018 20:00:00 - - - - - - -
15.02.2018 19:00:00 29,4 21,3 0 0 N 1011,1 10
15.02.2018 18:00:00 - - - - - - -
15.02.2018 17:00:00 - - - - - - -
15.02.2018 16:00:00 33,0 21,1 0 0 N 1010,7 10
15.02.2018 15:00:00 - - - - - - -
15.02.2018 14:00:00 - - - - - - -
15.02.2018 13:00:00 33,4 20,6 0 0 N 1013,2 10
15.02.2018 12:00:00 - - - - - - -
15.02.2018 11:00:00 - - - - - - -
15.02.2018 10:00:00 30,4 21,7 0 0 N 1015,0 10
15.02.2018 09:00:00 - - - - - - -
15.02.2018 08:00:00 - - - - - - -
15.02.2018 07:00:00 23,5 22,0 0 0 N 1013,8 10
15.02.2018 06:00:00 - - - - - - -
15.02.2018 05:00:00 - - - - - - -
15.02.2018 04:00:00 25,8 23,2 0 0 N 1012,2 10
15.02.2018 03:00:00 - - - - - - -
15.02.2018 02:00:00 - - - - - - -
15.02.2018 01:00:00 26,2 23,3 0 0 N 1013,8 10
15.02.2018 00:00:00 - - - - - - -
14.02.2018 23:00:00 - - - - - - -
14.02.2018 22:00:00 26,4 20,8 0 0 N 1013,6 10
14.02.2018 21:00:00 - - - - - - -
14.02.2018 20:00:00 - - - - - - -
14.02.2018 19:00:00 28,5 20,5 0 0 N 1012,4 10
14.02.2018 18:00:00 - - - - - - -
14.02.2018 17:00:00 - - - - - - -
14.02.2018 16:00:00 33,3 19,2 4 2 ESE 1011,9 10
14.02.2018 15:00:00 - - - - - - -
14.02.2018 14:00:00 - - - - - - -
14.02.2018 13:00:00 32,8 17,9 0 0 N 1014,6 10
14.02.2018 12:00:00 - - - - - - -
14.02.2018 11:00:00 - - - - - - -
14.02.2018 10:00:00 29,0 18,6 0 0 N 1017,1 10
14.02.2018 09:00:00 - - - - - - -
14.02.2018 08:00:00 - - - - - - -
14.02.2018 07:00:00 22,0 19,7 0 0 N 1016,0 10
14.02.2018 06:00:00 - - - - - - -
14.02.2018 05:00:00 - - - - - - -
14.02.2018 04:00:00 24,7 22,2 0 0 N 1014,7 10
14.02.2018 03:00:00 - - - - - - -
14.02.2018 02:00:00 - - - - - - -
14.02.2018 01:00:00 25,0 21,7 0 0 N 1015,3 10
14.02.2018 00:00:00 - - - - - - -
13.02.2018 23:00:00 - - - - - - -
13.02.2018 22:00:00 26,7 19,1 0 0 N 1015,7 10
13.02.2018 21:00:00 - - - - - - -
13.02.2018 20:00:00 - - - - - - -
13.02.2018 19:00:00 28,2 19,6 0 0 N 1014,5 10
13.02.2018 18:00:00 - - - - - - -
13.02.2018 17:00:00 - - - - - - -
13.02.2018 16:00:00 31,2 20,7 4 2 N 1014,8 12
13.02.2018 15:00:00 - - - - - - -
13.02.2018 14:00:00 - - - - - - -
13.02.2018 13:00:00 30,5 21,3 4 2 ENE 1008,1 12

tt = temperature
td = dewpoint
ff = wind speed
dd = wind direction
ppp = reduced air pressure
vv = visibility

Next stations